Location: Unspecified
(0.0000°N, 0.0000°E)
Time: 09:21:04
(UTC+00:00)

ATLAS 5 CENTAUR DEB - Pass Details

Date: 19 December 2025
Orbit: 7978 x 35827 km, 19.5° (Epoch: 10 February)

Event Time Altitude Azimuth Distance (km) Brightness Sun altitude
Rises 13:57:11 0° 288° (WNW) 15,820 ? 52.6°
Reaches altitude 10° 14:10:09 10° 293° (WNW) 13,356 ? 50.1°
Maximum altitude 14:56:15 68° 20° (NNE) 8,678 ? 40.6°
Drops below altitude 10° 16:52:47 10° 107° (ESE) 26,147 ? 14.7°
Sets 02:29:04 0° 81° (E) 20,605 ? -46.3°
